Lid_Strength_Index
4 4 4 4 4 4 4 4 4 4 3 3 1 1 1 1 2 6 10 9 10 12 13 12 12 13 14 12 14 14 14 15 15 16 15 16 17 17 19 17 18 17 18 17 16 18 20 10 11 14 12 10 9 9
4 4 4 4 4 4 4 4 4 4 4 4 3 1 0 1 3 5 11 9 8 11 13 11 12 11 11 10 12 12 13 14 12 13 14 14 17 18 17 18 15 18 14 15 14 14 10 9 11 11 11 11 10 10
3 3 4 4 4 4 4 4 4 3 4 4 4 4 3 1 2 5 10 9 10 11 12 11 13 12 11 11 10 12 13 12 12 12 12 13 16 15 18 18 16 13 12 15 15 12 11 11 11 12 12 12 11 11
1 2 2 3 3 4 4 4 4 4 4 4 4 4 4 3 1 4 9 8 9 10 13 15 11 14 12 10 10 11 13 13 13 11 12 13 15 13 15 15 15 12 14 15 15 13 14 11 13 13 13 13 14 13
-0 0 1 1 1 2 3 3 3 3 3 4 4 4 4 4 2 6 7 7 7 9 14 15 14 14 12 10 11 11 11 12 12 13 14 15 13 14 13 14 15 13 14 16 17 15 17 16 14 14 15 16 16 16
-1 -1 -0 -0 0 0 1 1 2 3 3 3 3 3 3 4 4 8 12 9 8 8 11 16 15 16 14 12 12 12 12 11 10 12 12 12 14 12 15 16 15 16 16 16 16 16 17 17 16 15 18 19 18 19
-1 -1 -1 -1 -1 -1 -0 0 1 1 1 2 3 3 3 2 6 8 10 8 7 7 12 16 17 16 16 15 15 13 12 13 12 14 13 13 13 12 14 17 16 17 18 18 17 19 19 18 20 20 20 20 21 22
-1 -1 -1 -1 -1 -1 -1 -1 -0 -0 1 1 1 2 2 4 6 9 5 5 7 10 10 16 18 16 16 16 17 16 15 13 16 15 14 14 14 14 17 17 19 19 20 19 18 19 21 21 22 23 23 24 25 25
-1 -1 -1 -1 -0 -1 -1 -1 -1 -1 0 1 1 1 5 7 9 10 6 8 9 9 14 14 17 18 16 18 17 16 15 16 17 16 15 16 16 19 17 19 21 21 22 22 21 24 25 26 26 25 25 26 27 27
-0 -0 -0 -1 -1 -1 -1 -1 -1 -1 0 1 3 6 10 8 5 6 9 9 11 13 14 17 18 19 16 17 18 17 17 17 19 17 16 18 17 19 20 20 21 21 21 23 27 26 26 26 27 27 28 27 28 28
-0 -0 -0 -0 -0 -0 -1 -1 -1 -0 0 4 6 8 6 5 9 10 15 13 15 16 17 20 17 19 16 17 18 17 17 18 19 18 18 18 19 19 21 21 20 21 22 23 24 25 25 26 27 27 27 26 27 27
-0 -0 -0 -0 -0 -0 -0 -0 0 2 4 4 6 7 9 11 12 15 19 21 17 17 22 18 19 17 18 15 17 18 18 19 20 19 19 20 17 21 21 22 22 23 24 26 26 26 26 25 25 26 27 27 27 27
-0 -0 -0 -0 0 1 1 1 2 1 2 5 8 11 11 13 15 15 20 20 21 21 22 20 20 18 18 16 19 17 19 19 20 20 20 17 20 22 23 24 25 26 27 27 26 26 26 26 27 28 28 27 26 26
-0 0 1 1 1 1 2 1 1 2 7 8 11 17 16 16 17 17 16 18 22 20 19 19 21 17 18 19 19 19 22 20 21 22 20 17 21 22 24 24 27 26 27 28 26 26 28 28 28 27 28 27 27 27
2 2 2 2 1 1 1 3 7 12 13 15 15 21 23 27 26 27 27 22 22 18 18 18 18 16 19 21 20 21 23 22 20 19 18 19 22 24 25 24 26 27 28 28 27 28 28 28 29 28 28 28 28 29
3 3 4 1 2 2 4 8 11 13 19 20 23 23 25 21 23 21 20 22 22 18 16 15 18 19 21 20 21 20 20 21 18 19 20 22 25 26 26 26 26 27 27 27 27 28 27 30 30 29 30 30 33 31
3 5 3 4 4 6 7 11 14 20 20 20 24 25 24 22 22 23 21 21 20 16 17 17 19 20 22 21 21 20 19 19 20 21 21 23 24 24 27 28 28 29 28 28 28 28 28 28 32 31 30 27 30 29
6 4 4 5 7 10 15 15 17 19 24 24 23 26 25 24 23 23 22 21 18 18 18 18 20 21 20 20 19 19 21 22 23 23 22 24 25 26 26 26 27 28 28 28 29 30 31 31 29 26 29 27 31 29
5 5 5 6 7 12 15 18 17 24 26 25 24 24 23 23 23 23 22 22 22 20 18 18 18 19 19 21 20 23 23 23 23 23 23 26 27 27 28 27 28 29 29 28 27 27 26 29 29 29 28 29 29 28
6 7 8 9 9 13 17 20 17 19 22 23 22 23 23 23 24 23 22 22 20 18 22 22 23 24 23 24 24 24 24 25 25 24 23 24 25 28 26 26 26 25 27 27 28 30 28 27 26 28 29 30 31 29
8 9 9 13 17 22 23 22 23 22 22 23 25 22 22 21 22 22 22 24 22 26 25 27 26 26 28 28 27 27 26 26 25 25 25 25 24 26 26 26 27 28 28 27 27 26 30 28 27 28 30 30 29 29
11 10 13 13 17 19 22 24 21 23 21 24 23 22 21 21 23 25 27 24 27 29 29 28 27 27 26 27 28 29 28 29 28 28 28 28 28 26 26 26 28 28 28 28 27 28 27 27 29 30 30 29 29 29
13 12 16 15 18 19 24 23 21 23 19 23 24 21 24 24 26 26 28 29 28 28 29 29 29 30 30 29 32 30 32 31 28 26 27 27 27 28 29 29 29 31 30 28 28 29 29 30 31 32 30 29 29 28
17 24 24 23 19 23 23 24 23 22 22 22 21 24 25 25 27 23 28 28 28 27 28 29 29 26 27 30 26 27 28 30 29 28 27 29 29 28 27 28 28 29 30 29 30 31 30 30 30 30 30 29 28 28
17 27 25 24 23 22 23 23 23 21 25 29 24 26 27 29 24 27 28 28 28 28 28 28 28 28 29 28 27 27 30 29 30 30 29 28 30 30 29 28 28 28 28 32 32 31 31 30 30 30 30 29 29 29
28 33 28 28 26 24 25 24 26 27 25 26 28 29 29 23 24 28 29 29 28 28 28 29 30 30 29 28 29 29 28 28 30 32 29 28 31 31 31 31 30 29 31 32 32 31 31 31 31 32 31 30 30 30
27 30 32 32 31 30 28 29 29 26 28 28 28 26 24 26 27 29 28 28 28 27 27 28 28 29 29 29 28 27 27 27 29 30 28 29 29 30 31 32 31 29 31 33 33 34 34 33 32 32 31 30 29 29
33 33 30 32 32 32 32 32 31 32 31 33 31 30 27 28 29 29 28 27 27 28 28 27 27 27 28 28 28 28 29 29 30 31 31 31 31 31 32 32 32 28 31 31 32 32 32 32 33 32 31 31 29 28
32 35 34 34 34 34 37 35 33 34 35 34 30 31 32 30 28 28 27 27 28 28 29 30 29 28 28 28 28 28 29 31 33 33 32 30 29 29 34 34 33 32 32 32 30 29 30 31 31 31 31 30 29 28
34 37 32 35 34 34 34 35 34 35 35 36 35 32 30 29 27 28 28 28 29 30 31 31 30 30 30 30 30 29 28 31 33 32 31 31 29 28 29 30 30 30 31 31 32 31 29 29 29 30 31 31 30 30
37 33 31 31 32 33 34 35 35 35 35 34 35 31 31 31 29 29 29 29 31 32 30 30 30 30 29 30 30 31 31 30 34 33 33 32 31 31 31 30 31 31 31 32 32 33 32 32 32 32 31 31 30 30
32 34 32 32 32 34 34 32 32 31 30 30 30 30 30 29 31 29 29 31 31 30 29 30 31 30 28 28 28 28 28 29 29 29 29 28 28 28 28 29 29 30 31 31 31 32 32 32 32 31 31 31 30 29
34 33 33 31 31 30 33 32 30 31 30 31 32 34 33 32 32 29 30 32 31 30 30 30 30 29 28 29 29 29 29 28 28 26 25 26 27 27 27 26 27 27 28 28 29 29 30 30 30 30 30 29 29 29